This demonstration page uses our WeatherBlox Daily Observations layout. Learn more.

Left ArrowRight Arrow

36.17497, -115.13722

Hourly Observations for March 15, 2015

Temp ( °F °C ) Dew Point ( °F °C ) Humidity (%) Winds ( mph kmh ) Pressure ( in mb ) Visibility ( mi km ) Precip ( " mm )
12:53 am 00:53 Clear 61 16.1 34 1.1 36 36 NNW 5 7 30.15 1021 10 16 0.00 0.00
1:53 am 01:53 Clear 60 15.6 33 0.6 36 36 NW 7 11 30.16 1021 10 16 0.00 0.00
2:53 am 02:53 Clear 59 15 33 0.6 38 38 NW 3 6 30.15 1021 10 16 0.00 0.00
3:53 am 03:53 Clear 59 15 34 1.1 39 39 NW 6 9 30.17 1022 10 16 0.00 0.00
4:53 am 04:53 Clear 57 13.9 33 0.6 41 41 NW 7 11 30.17 1022 10 16 0.00 0.00
5:53 am 05:53 Clear 56 13.3 34 1.1 44 44 Calm 30.17 1022 10 16 0.00 0.00
6:53 am 06:53 Sunny 57 13.9 33 0.6 41 41 Calm 30.18 1022 10 16 0.00 0.00
7:53 am 07:53 Sunny 59 15 34 1.1 39 39 N 3 6 30.19 1022 10 16 0.00 0.00
8:53 am 08:53 Sunny 65 18.3 34 1.1 32 32 Calm 30.21 1023 10 16 0.00 0.00
9:53 am 09:53 Sunny 69 20.6 30 -1.1 23 23 SE 3 6 30.22 1023 10 16 0.00 0.00
10:53 am 10:53 Sunny 72 22.2 30 -1.1 21 21 ESE 5 7 30.20 1023 10 16 0.00 0.00
11:53 am 11:53 Sunny 75 23.9 30 -1.1 19 19 SSE 7 11 30.18 1022 10 16 0.00 0.00
12:53 pm 12:53 Sunny 77 25 29 -1.7 17 17 SSE 7 11 30.14 1021 10 16 0.00 0.00
1:53 pm 13:53 Sunny 79 26.1 29 -1.7 16 16 SSE 10 17 30.10 1019 10 16 0.00 0.00
2:53 pm 14:53 Sunny 80 26.7 28 -2.2 15 15 S 9 15 30.07 1018 10 16 0.00 0.00
3:20 pm 15:20 Sunny 81 27 28 -2 15 15 S 7 11 29.94 1014 10 16 0.00 0.00
3:22 pm 15:22 Sunny 81 27 28 -2 15 15 SSE 10 17 29.94 1014 10 16 0.00 0.00
3:53 pm 15:53 Sunny 81 27.2 28 -2.2 14 14 SSE 6 9 30.04 1017 10 16 0.00 0.00
4:53 pm 16:53 Sunny 81 27.2 28 -2.2 14 14 E 6 9 30.03 1017 10 16 0.00 0.00
5:53 pm 17:53 Sunny 80 26.7 28 -2.2 15 15 ESE 10 17 30.01 1016 10 16 0.00 0.00
6:53 pm 18:53 Clear 77 25 28 -2.2 16 16 E 6 9 30.01 1016 10 16 0.00 0.00
7:53 pm 19:53 Clear 75 23.9 28 -2.2 18 18 Calm 30.03 1017 10 16 0.00 0.00
8:53 pm 20:53 Clear 71 21.7 32 0 24 24 WNW 6 9 30.04 1017 10 16 0.00 0.00
9:53 pm 21:53 Clear 68 20 34 1.1 28 28 NW 6 9 30.05 1018 10 16 0.00 0.00
10:53 pm 22:53 Clear 66 18.9 34 1.1 30 30 NW 7 11 30.05 1018 10 16 0.00 0.00
11:53 pm 23:53 Clear 64 17.8 33 0.6 32 32 WNW 3 6 30.05 1018 10 16 0.00 0.00

Powered by AerisWeather